San Benito, TX

3:32 PM CDT on August 28, 2016 (GMT -0500)
Valley International

Weather History for KHRL - February, 2013

Change the Weather History Date:

Thursday, February 14, 2013

  Actual Average Record
Temperature  
Mean Temperature 58 °F 63 °F  
Max Temperature 74 °F 74 °F 90 °F (2005)
Min Temperature 42 °F 53 °F 34 °F (1917)
Degree Days  
Heating Degree Days 7 4  
Month to date heating degree days 16 69  
Since 1 July heating degree days 315 517  
Cooling Degree Days 0 3  
Month to date cooling degree days 80 33  
Year to date cooling degree days 150 82  
Growing Degree Days 8 (Base 50)    
Moisture  
Dew Point 42 °F    
Average Humidity 58    
Maximum Humidity 89    
Minimum Humidity 27    
Precipitation  
Precipitation 0.00 in 0.06 in 0.97 in (1969)
Month to date precipitation 0.20 0.83  
Year to date precipitation 2.74 1.89  
Sea Level Pressure  
Sea Level Pressure 30.07 in    
Wind  
Wind Speed 7 mph (ENE)    
Max Wind Speed 17 mph    
Max Gust Speed 21 mph    
Visibility 10 miles    
Events      
T = Trace of Precipitation, MM = Missing Value Source: NWS Daily Summary

Daily Weather History Graph

Daily Weather History Graph

Search for Another Location

Airport or City:

Trip Planner

Search our weather history database for the weather conditions in past years. The results will help you decide how hot, cold, wet, or windy it might be!

Date:

Astronomy

Feb. 14, 2013 Rise Set
Actual Time 7:06 AM CST 6:23 PM CST
Civil Twilight 6:43 AM CST 6:46 PM CST
Nautical Twilight 6:16 AM CST 7:13 PM CST
Astronomical Twilight 5:49 AM CST 7:40 PM CST
Moon 9:42 AM CST (2/14) 10:51 PM CST (2/14)
Length of Visible Light 12h 03m
Length of Day
11h 16m
Waxing Crescent, 22% of the Moon is Illuminated
Feb 14
Waxing Crescent
Feb 17
First Quarter
Feb 25
Full
Mar 4
Last Quarter
Mar 11
New

Hourly Weather History & Observations

Time (CST) Temp. Windchill Dew Point Humidity Pressure Visibility Wind Dir Wind Speed Gust Speed Precip Events Conditions
12:52 AM 51.1 °F - 44.1 °F 77% 30.09 in 10.0 mi East 4.6 mph - N/A   Clear
1:52 AM 51.1 °F - 45.0 °F 80% 30.09 in 10.0 mi East 3.5 mph - N/A   Clear
2:52 AM 50.0 °F - 44.1 °F 80% 30.06 in 10.0 mi NE 5.8 mph - N/A   Clear
3:52 AM 48.9 °F - 44.1 °F 83% 30.06 in 10.0 mi NNE 5.8 mph - N/A   Clear
4:52 AM 46.0 °F 43.1 °F 42.1 °F 86% 30.06 in 10.0 mi North 5.8 mph - N/A   Clear
5:52 AM 44.1 °F 40.8 °F 39.9 °F 85% 30.07 in 10.0 mi NNW 5.8 mph - N/A   Clear
6:52 AM 42.1 °F 38.4 °F 37.9 °F 85% 30.09 in 10.0 mi NW 5.8 mph - N/A   Clear
7:52 AM 45.0 °F 42.6 °F 41.0 °F 86% 30.12 in 10.0 mi NW 4.6 mph - N/A   Clear
8:52 AM 54.0 °F - 46.0 °F 75% 30.13 in 10.0 mi NW 3.5 mph - N/A   Clear
9:52 AM 62.1 °F - 46.9 °F 58% 30.15 in 10.0 mi Variable 3.5 mph - N/A   Clear
10:52 AM 66.9 °F - 45.0 °F 45% 30.14 in 10.0 mi ENE 3.5 mph - N/A   Clear
11:52 AM 71.1 °F - 39.0 °F 31% 30.13 in 10.0 mi NNE 10.4 mph - N/A   Clear
12:52 PM 70.0 °F - 39.0 °F 32% 30.09 in 10.0 mi Calm Calm - N/A   Clear
1:52 PM 73.0 °F - 37.0 °F 27% 30.05 in 10.0 mi NE 6.9 mph - N/A   Clear
2:52 PM 73.0 °F - 39.9 °F 30% 30.02 in 10.0 mi East 12.7 mph - N/A   Clear
3:52 PM 72.0 °F - 39.0 °F 30% 30.03 in 10.0 mi East 13.8 mph 19.6 mph N/A   Clear
4:52 PM 69.1 °F - 37.0 °F 31% 30.02 in 10.0 mi East 12.7 mph - N/A   Clear
5:52 PM 64.9 °F - 43.0 °F 45% 30.03 in 10.0 mi East 13.8 mph - N/A   Clear
6:52 PM 61.0 °F - 45.0 °F 56% 30.04 in 10.0 mi East 10.4 mph - N/A   Clear
7:52 PM 55.0 °F - 43.0 °F 64% 30.04 in 10.0 mi East 6.9 mph - N/A   Clear
8:52 PM 54.0 °F - 44.1 °F 69% 30.06 in 10.0 mi ESE 8.1 mph - N/A   Clear
9:52 PM 51.1 °F - 43.0 °F 74% 30.06 in 10.0 mi SE 4.6 mph - N/A   Clear
10:52 PM 51.1 °F - 43.0 °F 74% 30.06 in 10.0 mi Calm Calm - N/A   Clear
11:52 PM 48.0 °F - 43.0 °F 83% 30.06 in 10.0 mi South 4.6 mph - N/A   Clear